Kailua Kona, HI

8:11 PM HST on February 07, 2016 (GMT -1000)
Kona International At Keahole

Weather History for PHKO - March, 2014

Change the Weather History Date:

Saturday, March 29, 2014

  Actual Average Record
Temperature  
Mean Temperature 76 °F -  
Max Temperature 80 °F 79 °F 88 °F (1986)
Min Temperature 72 °F 68 °F 66 °F (2012)
Cooling Degree Days 11    
Growing Degree Days 26 (Base 50)    
Moisture  
Dew Point 64 °F    
Average Humidity 70    
Maximum Humidity 81    
Minimum Humidity 58    
Precipitation  
Precipitation 0.02 in - - ()
Sea Level Pressure  
Sea Level Pressure 29.99 in    
Wind  
Wind Speed 7 mph (East)    
Max Wind Speed 12 mph    
Max Gust Speed -    
Visibility 10 miles    
Events Rain    
Averages and records for this station are not official NWS values.
T = Trace of Precipitation, MM = Missing Value Source: NWS Daily Summary

Daily Weather History Graph

Daily Weather History Graph

Search for Another Location

Airport or City:

Trip Planner

Search our weather history database for the weather conditions in past years. The results will help you decide how hot, cold, wet, or windy it might be!

Date:

Astronomy

Mar. 29, 2014 Rise Set
Actual Time 6:20 AM HST 6:37 PM HST
Civil Twilight 5:58 AM HST 6:59 PM HST
Nautical Twilight 5:32 AM HST 7:25 PM HST
Astronomical Twilight 5:06 AM HST 7:51 PM HST
Moon 5:28 AM HST (3/29) 5:57 PM HST (3/29)
Length of Visible Light 13h 01m
Length of Day
12h 17m
Waning Crescent, 1% of the Moon is Illuminated
Mar 29
Waning Crescent
Mar 30
New
Apr 6
First Quarter
Apr 14
Full
Apr 21
Last Quarter

Hourly Weather History & Observations

Time (HST) Temp. Heat Index Dew Point Humidity Pressure Visibility Wind Dir Wind Speed Gust Speed Precip Events Conditions
12:53 AM 73.9 °F - 63.0 °F 68% 30.01 in 10.0 mi SSE 10.4 mph - N/A   Clear
1:53 AM 73.9 °F - 62.1 °F 66% 29.99 in 10.0 mi SE 6.9 mph - N/A   Clear
2:53 AM 75.0 °F - 62.1 °F 64% 29.97 in 10.0 mi ESE 10.4 mph - N/A   Clear
3:53 AM 75.0 °F - 63.0 °F 66% 29.94 in 10.0 mi ESE 8.1 mph - N/A   Clear
4:53 AM 75.0 °F - 62.1 °F 64% 29.95 in 10.0 mi East 4.6 mph - N/A   Clear
5:53 AM 73.9 °F - 63.0 °F 68% 29.96 in 10.0 mi ESE 8.1 mph - N/A   Clear
6:53 AM 75.0 °F - 62.1 °F 64% 29.98 in 10.0 mi SE 4.6 mph - N/A   Clear
7:53 AM 77.0 °F - 63.0 °F 62% 30.00 in 10.0 mi East 3.5 mph - N/A   Clear
8:53 AM 79.0 °F - 63.0 °F 58% 30.01 in 10.0 mi Calm Calm - N/A   Mostly Cloudy
9:53 AM 80.1 °F 81.7 °F 64.0 °F 58% 30.01 in 10.0 mi WNW 6.9 mph - N/A   Scattered Clouds
10:53 AM 78.1 °F - 64.9 °F 64% 30.01 in 10.0 mi NNW 11.5 mph - N/A   Mostly Cloudy
11:53 AM 77.0 °F - 64.0 °F 64% 30.01 in 10.0 mi NW 11.5 mph - N/A   Clear
12:53 PM 75.0 °F - 63.0 °F 66% 29.99 in 10.0 mi WNW 9.2 mph - N/A   Mostly Cloudy
1:53 PM 72.0 °F - 64.9 °F 78% 29.98 in 10.0 mi West 9.2 mph - 0.01 in Rain Light Rain
2:53 PM 72.0 °F - 63.0 °F 73% 29.95 in 10.0 mi Calm Calm - 0.01 in Rain Light Rain
3:53 PM 73.0 °F - 64.9 °F 76% 29.96 in 10.0 mi WNW 4.6 mph - 0.00 in   Mostly Cloudy
4:53 PM 73.9 °F - 63.0 °F 68% 29.96 in 10.0 mi NNW 8.1 mph - N/A   Mostly Cloudy
5:53 PM 73.9 °F - 63.0 °F 68% 29.96 in 10.0 mi North 5.8 mph - N/A   Mostly Cloudy
6:53 PM 73.0 °F - 63.0 °F 71% 29.98 in 10.0 mi Calm Calm - 0.00 in   Overcast
7:53 PM 73.0 °F - 66.0 °F 79% 29.99 in 10.0 mi Calm Calm - 0.00 in   Overcast
8:53 PM 72.0 °F - 66.0 °F 81% 30.01 in 10.0 mi Calm Calm - N/A   Overcast
9:53 PM 73.0 °F - 66.9 °F 81% 30.02 in 10.0 mi Calm Calm - 0.00 in   Overcast
10:53 PM 72.0 °F - 66.0 °F 81% 30.02 in 10.0 mi ESE 4.6 mph - N/A   Mostly Cloudy
11:53 PM 72.0 °F - 66.0 °F 81% 30.01 in 10.0 mi East 3.5 mph - N/A   Overcast